This is the latest recevied weather packets stored in our database for station/object CE3TPB-1. If no packets are shown the sender has not sent any weather packets the latest 10 day(s).
| Time | Temp. | Humidity | Pressure | Rain* | Wind** | Luminosity | Snow |
|---|---|---|---|---|---|---|---|
| 1777958010 | 25.56° C | 32% | 1022.5 hPa | - | - | - | - |
| 1777957410 | 26.11° C | 33% | 1019.2 hPa | - | - | - | - |
| 1777956209 | 26.11° C | 32% | 1020.7 hPa | - | - | - | - |
| 1777955608 | 26.11° C | 32% | 1022.3 hPa | - | - | - | - |
| 1777955008 | 26.67° C | 32% | 1017.3 hPa | - | - | - | - |
| 1777954408 | 26.67° C | 32% | 1020.2 hPa | - | - | - | - |
| 1777953807 | 26.67° C | 32% | 1018.7 hPa | - | - | - | - |
| 1777943600 | 27.22° C | 32% | 1028.1 hPa | - | - | - | - |
| 1777942399 | 26.67° C | 32% | 1019.3 hPa | - | - | - | - |
| 1777941198 | 26.11° C | 32% | 1017.2 hPa | - | - | - | - |
| 1777939997 | 25.56° C | 32% | 1021.4 hPa | - | - | - | - |
| 1777804542 | 20° C | 33% | 1022.3 hPa | - | - | - | - |
| 1777803942 | 20° C | 33% | 1019.4 hPa | - | - | - | - |
| 1777802741 | 20° C | 33% | 1023 hPa | - | - | - | - |
| 1777802141 | 20° C | 33% | 1019.9 hPa | - | - | - | - |
| 1777800340 | 19.44° C | 32% | 1021.3 hPa | - | - | - | - |
| 1777799139 | 22.22° C | 29% | 1022.8 hPa | - | - | - | - |
| 1777777103 | 24.44° C | 33% | 1025.2 hPa | - | - | - | - |
| 1777776503 | 24.44° C | 33% | 1024.3 hPa | - | - | - | - |
| 1777774101 | 26.11° C | 32% | 1024.8 hPa | - | - | - | - |
| 1777773500 | 26.11° C | 32% | 1023.5 hPa | - | - | - | - |
| 1777772900 | 26.11° C | 32% | 1023.7 hPa | - | - | - | - |
| 1777772300 | 26.67° C | 32% | 1024.4 hPa | - | - | - | - |
| 1777771699 | 26.67° C | 32% | 1024.3 hPa | - | - | - | - |
| 1777771099 | 26.67° C | 32% | 1025.1 hPa | - | - | - | - |
* Rain since midnight (hover to see other rain measurements)
** Current wind speed in m/s (hover to see current wind gust speed)